GW3254 Weather Reports


time (UTC)temp
C
wind
direction
speed
KPH
gust
KPH
rain 1hr
cm
rain 24hr
cm
rain mn
cm
humidity
%
barometer
mb
20260507233432 7 155 1.6 4.8 0.00 0.00 0.00 48 1017.2
20260507232931 7 157 3.2 4.8 0.00 0.00 0.00 48 1017.4
20260507232427 7 169 3.2 4.8 0.00 0.00 0.00 48 1017.1
20260507231924 7 150 0.0 4.8 0.00 0.00 0.00 48 1017.2
20260507231420 7 135 3.2 3.2 0.00 0.00 0.00 47 1017.3
20260507230918 7 159 1.6 4.8 0.00 0.00 0.00 47 1017.3
20260507230415 7 160 3.2 4.8 0.00 0.00 0.00 47 1017.4
20260507225914 7 152 3.2 3.2 0.00 0.00 0.00 47 1017.1
20260507225411 7 184 0.0 3.2 0.00 0.00 0.00 47 1017.3
20260507224907 8 166 3.2 4.8 0.00 0.00 0.00 47 1017.1
20260507224403 8 172 3.2 4.8 0.00 0.00 0.00 47 1017.2
20260507223900 8 163 3.2 4.8 0.00 0.00 0.00 47 1017.1
20260507223357 8 150 0.0 3.2 0.00 0.00 0.00 47 1017.1
20260507222854 8 125 1.6 4.8 0.00 0.00 0.00 47 1017.1
20260507222350 8 163 0.0 4.8 0.00 0.00 0.00 47 1017.4
20260507221847 8 150 1.6 3.2 0.00 0.00 0.00 46 1016.9
20260507221343 8 155 1.6 3.2 0.00 0.00 0.00 46 1017.0
20260507220839 9 181 3.2 4.8 0.00 0.00 0.00 46 1016.9
20260507220338 9 180 3.2 4.8 0.00 0.00 0.00 46 1017.2
20260507215833 9 175 3.2 4.8 0.00 0.00 0.00 46 1017.0
20260507215330 9 176 3.2 4.8 0.00 0.00 0.00 46 1017.1
20260507214827 10 176 3.2 4.8 0.00 0.00 0.00 46 1016.9
20260507214325 10 172 3.2 4.8 0.00 0.00 0.00 46 1016.9
20260507213820 10 172 3.2 4.8 0.00 0.00 0.00 46 1017.0
20260507213318 10 156 3.2 4.8 0.00 0.00 0.00 46 1016.9
20260507212814 10 146 1.6 4.8 0.00 0.00 0.00 45 1016.9
20260507212310 10 202 0.0 1.6 0.00 0.00 0.00 45 1016.9
20260507211807 10 168 3.2 4.8 0.00 0.00 0.00 45 1016.6
20260507211304 10 180 4.8 4.8 0.00 0.00 0.00 45 1016.8
20260507210801 10 169 1.6 3.2 0.00 0.00 0.00 45 1016.7
20260507210257 11 159 0.0 4.8 0.00 0.00 0.00 45 1016.5
20260507205753 11 165 0.0 3.2 0.00 0.00 0.00 45 1016.8
20260507205251 11 161 3.2 4.8 0.00 0.00 0.00 44 1016.4
20260507204747 11 191 3.2 4.8 0.00 0.00 0.00 44 1016.5
20260507204245 11 151 3.2 4.8 0.00 0.00 0.00 44 1016.5
20260507203742 11 149 3.2 4.8 0.00 0.00 0.00 44 1016.4
20260507203239 11 153 3.2 6.4 0.00 0.00 0.00 44 1016.5
20260507202736 12 151 3.2 4.8 0.00 0.00 0.00 44 1016.3
20260507202232 12 131 0.0 3.2 0.00 0.00 0.00 44 1016.4
20260507201727 12 103 0.0 3.2 0.00 0.00 0.00 44 1016.2
20260507201224 12 175 1.6 4.8 0.00 0.00 0.00 44 1016.4
20260507200720 12 143 1.6 4.8 0.00 0.00 0.00 43 1016.2
20260507200216 12 151 1.6 4.8 0.00 0.00 0.00 43 1016.2
20260507195712 12 128 3.2 3.2 0.00 0.00 0.00 43 1016.0
20260507195204 12 140 3.2 4.8 0.00 0.00 0.00 43 1015.8
20260507194701 13 68 0.0 3.2 0.00 0.00 0.00 43 1015.9
20260507194156 13 224 0.0 3.2 0.00 0.00 0.00 42 1015.9
20260507193653 13 144 1.6 3.2 0.00 0.00 0.00 42 1016.0
20260507193151 13 137 1.6 3.2 0.00 0.00 0.00 42 1015.6
20260507192646 13 132 0.0 3.2 0.00 0.00 0.00 42 1015.6
20260507192144 13 116 1.6 3.2 0.00 0.00 0.00 42 1015.5
20260507191639 13 147 0.0 3.2 0.00 0.00 0.00 42 1015.6
20260507191136 14 168 1.6 1.6 0.00 0.00 0.00 42 1015.5
20260507190634 14 121 0.0 3.2 0.00 0.00 0.00 42 1015.5
20260507190133 14 148 3.2 4.8 0.00 0.00 0.00 42 1015.2
20260507185631 14 148 4.8 4.8 0.00 0.00 0.00 42 1015.2
20260507185127 15 159 3.2 4.8 0.00 0.00 0.00 41 1015.3
20260507184625 15 140 0.0 3.2 0.00 0.00 0.00 41 1015.0
20260507184123 15 124 0.0 3.2 0.00 0.00 0.00 41 1014.8
20260507183618 15 152 1.6 3.2 0.00 0.00 0.00 41 1015.0
20260507183116 15 112 0.0 4.8 0.00 0.00 0.00 41 1014.9
20260507182612 15 183 4.8 6.4 0.00 0.00 0.00 41 1014.9
20260507182108 15 168 1.6 4.8 0.00 0.00 0.00 42 1014.8
20260507181605 15 169 0.0 3.2 0.00 0.00 0.00 42 1014.9
20260507181101 15 207 1.6 8.0 0.00 0.00 0.00 41 1014.9
20260507180559 15 175 1.6 4.8 0.00 0.00 0.00 42 1014.5
20260507180055 15 133 4.8 4.8 0.00 0.00 0.00 41 1014.7
20260507175551 16 140 1.6 8.0 0.00 0.00 0.00 42 1014.6
20260507175048 16 196 1.6 3.2 0.00 0.00 0.00 42 1014.6
20260507174545 16 157 0.0 3.2 0.00 0.00 0.00 42 1014.6
20260507174043 16 247 3.2 6.4 0.00 0.00 0.00 42 1014.4
20260507173540 16 211 0.0 8.0 0.00 0.00 0.00 42 1014.4
20260507173037 16 259 3.2 8.0 0.00 0.00 0.00 41 1014.3
20260507172533 16 255 0.0 8.0 0.00 0.00 0.00 41 1014.4
20260507172030 16 261 6.4 11.3 0.00 0.00 0.00 41 1014.5
20260507171525 16 328 1.6 8.0 0.00 0.00 0.00 40 1014.7
20260507171023 16 235 0.0 9.7 0.00 0.00 0.00 40 1014.6
20260507170519 16 190 1.6 8.0 0.00 0.00 0.00 40 1014.2
20260507170016 16 201 6.4 11.3 0.00 0.00 0.00 40 1014.5
20260507165512 16 255 4.8 8.0 0.00 0.00 0.00 40 1014.3
20260507165009 16 195 6.4 12.9 0.00 0.00 0.00 40 1014.4
20260507164505 16 191 3.2 11.3 0.00 0.00 0.00 40 1014.3
20260507164002 16 163 0.0 6.4 0.00 0.00 0.00 40 1014.3
20260507163459 16 248 4.8 11.3 0.00 0.00 0.00 40 1014.3
20260507162956 16 209 3.2 11.3 0.00 0.00 0.00 40 1014.5
20260507162451 16 276 3.2 11.3 0.00 0.00 0.00 40 1014.4
20260507161949 16 289 3.2 8.0 0.00 0.00 0.00 40 1014.0
20260507161445 16 241 3.2 4.8 0.00 0.00 0.00 40 1014.2
20260507160942 16 283 3.2 8.0 0.00 0.00 0.00 40 1014.0
20260507160438 16 221 3.2 11.3 0.00 0.00 0.00 40 1014.1
20260507155933 16 208 4.8 9.7 0.00 0.00 0.00 40 1013.9
20260507155430 16 212 0.0 6.4 0.00 0.00 0.00 40 1014.0
20260507154927 16 267 4.8 16.1 0.00 0.00 0.00 39 1014.0
20260507154423 16 246 1.6 6.4 0.00 0.00 0.00 40 1014.0
20260507153921 16 199 6.4 14.5 0.00 0.00 0.00 39 1014.1
20260507153417 16 116 0.0 6.4 0.00 0.00 0.00 39 1014.0
20260507152914 16 310 8.0 9.7 0.00 0.00 0.00 39 1014.1
20260507152410 16 351 3.2 8.0 0.00 0.00 0.00 39 1014.0
20260507151906 16 286 6.4 11.3 0.00 0.00 0.00 39 1014.0
20260507151403 16 30 8.0 11.3 0.00 0.00 0.00 39 1013.9
20260507150900 16 28 4.8 9.7 0.00 0.00 0.00 41 1013.9
20260507150356 16 211 4.8 8.0 0.00 0.00 0.00 42 1013.9
20260507145853 16 274 4.8 12.9 0.00 0.00 0.00 42 1013.8
20260507145349 16 168 3.2 9.7 0.00 0.00 0.00 41 1014.0
20260507144846 16 333 1.6 8.0 0.00 0.00 0.00 42 1014.0
20260507144343 16 237 4.8 8.0 0.00 0.00 0.00 42 1013.7
20260507143840 16 285 6.4 8.0 0.00 0.00 0.00 42 1013.8
20260507143337 15 266 8.0 12.9 0.00 0.00 0.00 41 1013.9
20260507142833 15 259 8.0 8.0 0.00 0.00 0.00 41 1013.8
20260507142330 16 18 6.4 14.5 0.00 0.00 0.00 42 1013.8
20260507141827 15 196 1.6 8.0 0.00 0.00 0.00 42 1013.9
20260507141323 15 210 3.2 11.3 0.00 0.00 0.00 41 1014.0
20260507140820 15 309 3.2 9.7 0.00 0.00 0.00 42 1014.0
20260507140317 15 260 3.2 12.9 0.00 0.00 0.00 42 1014.0
20260507135815 15 257 1.6 9.7 0.00 0.00 0.00 42 1014.1
20260507135311 15 196 6.4 17.7 0.00 0.00 0.00 42 1013.6
20260507134808 15 174 6.4 9.7 0.00 0.00 0.00 43 1013.9
20260507134304 15 312 8.0 14.5 0.00 0.00 0.00 42 1013.8
20260507133800 14 330 9.7 14.5 0.00 0.00 0.00 42 1013.9
20260507133256 14 190 6.4 11.3 0.00 0.00 0.00 42 1013.9
20260507132754 14 186 6.4 12.9 0.00 0.00 0.00 43 1013.8
20260507132250 13 233 1.6 12.9 0.00 0.00 0.00 43 1014.0
20260507131748 13 153 3.2 6.4 0.00 0.00 0.00 42 1013.8
20260507131245 13 63 9.7 11.3 0.00 0.00 0.00 43 1013.7
20260507130741 13 189 6.4 11.3 0.00 0.00 0.00 44 1013.9
20260507130239 13 332 1.6 11.3 0.00 0.00 0.00 45 1014.0
20260507125738 13 325 3.2 9.7 0.00 0.00 0.00 45 1013.8
20260507125235 13 264 8.0 16.1 0.00 0.00 0.00 45 1013.7
20260507124732 13 299 6.4 12.9 0.00 0.00 0.00 45 1013.8
20260507124228 12 294 3.2 14.5 0.00 0.00 0.00 45 1013.8
20260507123727 12 305 6.4 14.5 0.00 0.00 0.00 46 1013.7
20260507123224 12 265 3.2 11.3 0.00 0.00 0.00 46 1013.7
20260507122719 12 219 3.2 8.0 0.00 0.00 0.00 46 1013.7
20260507122215 12 277 4.8 6.4 0.00 0.00 0.00 46 1013.5
20260507121711 12 209 4.8 8.0 0.00 0.00 0.00 45 1013.9
20260507121207 11 224 4.8 19.3 0.00 0.00 0.00 45 1013.7
20260507120703 11 299 3.2 11.3 0.00 0.00 0.00 45 1013.7
20260507120201 11 170 4.8 9.7 0.00 0.00 0.00 45 1013.7
20260507115656 11 213 8.0 16.1 0.00 0.00 0.00 44 1013.7
20260507115152 11 22 6.4 14.5 0.00 0.00 0.00 45 1013.6
20260507114648 10 39 3.2 12.9 0.00 0.00 0.00 45 1013.6
20260507114146 10 25 6.4 14.5 0.00 0.00 0.00 45 1013.6
20260507113643 10 334 3.2 11.3 0.00 0.00 0.00 45 1013.8
20260507113139 10 138 6.4 11.3 0.00 0.00 0.00 45 1013.6
20260507112637 10 29 11.3 25.7 0.00 0.00 0.00 46 1013.6
20260507112134 10 327 3.2 9.7 0.00 0.00 0.00 46 1013.6
20260507111631 10 35 6.4 11.3 0.00 0.00 0.00 45 1013.6
20260507111128 10 330 3.2 9.7 0.00 0.00 0.00 45 1013.6
20260507110624 10 50 3.2 9.7 0.00 0.00 0.00 45 1013.7
20260507110121 10 37 12.9 16.1 0.00 0.00 0.00 45 1013.5
20260507105618 9 13 8.0 25.7 0.00 0.00 0.00 46 1013.5
20260507105114 9 15 3.2 12.9 0.00 0.00 0.00 47 1013.4
20260507104612 9 67 4.8 8.0 0.00 0.00 0.00 47 1013.3
20260507104108 9 214 9.7 14.5 0.00 0.00 0.00 47 1013.4
20260507103604 9 69 4.8 12.9 0.00 0.00 0.00 47 1013.3
20260507103101 8 304 9.7 14.5 0.00 0.00 0.00 47 1013.6
20260507102557 8 8 6.4 11.3 0.00 0.00 0.00 47 1013.5
20260507102053 8 38 6.4 14.5 0.00 0.00 0.00 48 1013.4
20260507101549 8 100 12.9 16.1 0.00 0.00 0.00 48 1013.5
20260507101045 8 302 6.4 17.7 0.00 0.00 0.00 48 1013.2
20260507100543 8 28 9.7 14.5 0.00 0.00 0.00 48 1013.3
20260507100041 8 100 3.2 6.4 0.00 0.00 0.00 48 1013.3
20260507095538 8 12 11.3 12.9 0.00 0.00 0.00 49 1013.4
20260507095035 7 330 8.0 14.5 0.00 0.00 0.00 49 1013.3
20260507094531 7 55 6.4 19.3 0.00 0.00 0.00 50 1013.0
20260507094028 7 324 9.7 14.5 0.00 0.00 0.00 50 1013.4
20260507093526 7 43 0.0 11.3 0.00 0.00 0.00 50 1013.4
20260507093024 7 266 4.8 11.3 0.00 0.00 0.00 51 1013.5
20260507092520 7 303 4.8 6.4 0.00 0.00 0.00 51 1013.4
20260507092017 7 292 6.4 8.0 0.00 0.00 0.00 51 1013.5
20260507091514 7 327 6.4 12.9 0.00 0.00 0.00 51 1013.5
20260507091010 7 32 6.4 17.7 0.00 0.00 0.00 52 1013.3
20260507090506 7 294 3.2 8.0 0.00 0.00 0.00 52 1013.5
20260507090003 6 314 6.4 12.9 0.00 0.00 0.00 52 1013.5
20260507085500 6 327 6.4 16.1 0.00 0.00 0.00 52 1013.2
20260507084956 6 32 6.4 14.5 0.00 0.00 0.00 52 1013.4
20260507084453 6 312 9.7 9.7 0.00 0.00 0.00 53 1013.4
20260507083950 6 315 6.4 11.3 0.00 0.00 0.00 53 1013.2
20260507083446 6 338 4.8 11.3 0.00 0.00 0.00 54 1013.4
20260507082943 6 297 4.8 12.9 0.00 0.00 0.00 54 1013.3
20260507082439 6 329 4.8 9.7 0.00 0.00 0.00 55 1013.2
20260507081936 6 329 8.0 14.5 0.00 0.00 0.00 55 1013.0
20260507081432 5 309 3.2 8.0 0.00 0.00 0.00 55 1013.2
20260507080929 5 311 6.4 9.7 0.00 0.00 0.00 55 1013.2
20260507080425 5 36 4.8 11.3 0.00 0.00 0.00 55 1013.1
20260507075920 5 305 1.6 11.3 0.00 0.00 0.00 56 1013.0
20260507075417 5 0 11.3 14.5 0.00 0.00 0.00 56 1013.0
20260507074914 5 346 4.8 11.3 0.00 0.00 0.00 56 1012.8
20260507074411 5 330 3.2 9.7 0.00 0.00 0.00 56 1012.9
20260507073909 5 320 4.8 11.3 0.00 0.00 0.00 56 1012.8
20260507073404 5 343 6.4 12.9 0.00 0.00 0.00 56 1013.1
20260507072902 5 338 4.8 9.7 0.00 0.00 0.00 56 1013.0
20260507072359 5 306 11.3 11.3 0.00 0.00 0.00 56 1012.8
20260507071856 5 34 4.8 8.0 0.00 0.00 0.00 56 1012.8
20260507071353 4 359 12.9 14.5 0.00 0.00 0.00 56 1012.8
20260507070849 4 320 6.4 11.3 0.00 0.00 0.00 56 1012.9
20260507070347 4 20 6.4 17.7 0.00 0.00 0.00 57 1012.8
20260507065844 4 10 8.0 14.5 0.00 0.00 0.00 57 1012.8
20260507065340 4 29 6.4 14.5 0.00 0.00 0.00 57 1012.6
20260507064837 3 322 9.7 14.5 0.00 0.00 0.00 57 1012.7
20260507064336 3 19 8.0 17.7 0.00 0.00 0.00 57 1012.5
20260507063833 3 29 8.0 14.5 0.00 0.00 0.00 57 1012.4
20260507063330 3 352 1.6 12.9 0.00 0.00 0.00 57 1012.4
20260507062827 3 16 4.8 11.3 0.00 0.00 0.00 57 1012.4
20260507062324 3 344 4.8 9.7 0.00 0.00 0.00 57 1012.3
20260507061822 3 26 6.4 12.9 0.00 0.00 0.00 57 1012.5
20260507061320 3 350 4.8 9.7 0.00 0.00 0.00 57 1012.5
20260507060818 3 341 3.2 9.7 0.00 0.00 0.00 57 1012.4
20260507060314 3 338 4.8 9.7 0.00 0.00 0.00 57 1012.3
20260507055811 3 329 8.0 11.3 0.00 0.00 0.00 57 1012.1
20260507055306 2 36 8.0 11.3 0.00 0.00 0.00 56 1012.2
20260507054803 2 326 6.4 9.7 0.00 0.00 0.00 56 1012.2
20260507054259 2 350 4.8 11.3 0.00 0.00 0.00 56 1012.2
20260507053757 2 25 9.7 14.5 0.00 0.00 0.00 56 1012.0
20260507053254 2 93 3.2 8.0 0.00 0.00 0.00 55 1011.9
20260507052753 2 14 4.8 11.3 0.00 0.00 0.00 55 1012.0
20260507052249 2 349 1.6 6.4 0.00 0.00 0.00 55 1011.9
20260507051747 2 0 4.8 8.0 0.00 0.00 0.00 55 1011.9
20260507051244 2 342 1.6 6.4 0.00 0.00 0.00 54 1012.2
20260507050741 2 353 3.2 6.4 0.00 0.00 0.00 54 1011.8
20260507050237 2 319 1.6 6.4 0.00 0.00 0.00 53 1012.0
20260507045734 2 345 0.0 3.2 0.00 0.00 0.00 53 1011.9
20260507045230 2 341 1.6 3.2 0.00 0.00 0.00 53 1012.0
20260507044728 2 131 1.6 4.8 0.00 0.00 0.00 53 1011.9
20260507044224 2 142 3.2 4.8 0.00 0.00 0.00 53 1011.7
20260507043720 2 149 4.8 4.8 0.00 0.00 0.00 53 1011.8
20260507043217 2 164 3.2 4.8 0.00 0.00 0.00 53 1011.7
20260507042714 2 156 1.6 4.8 0.00 0.00 0.00 53 1011.6
20260507042208 2 127 3.2 4.8 0.00 0.00 0.00 53 1011.6
20260507041706 2 155 3.2 4.8 0.00 0.00 0.00 53 1011.5
20260507041203 2 174 1.6 3.2 0.00 0.00 0.00 53 1011.4
20260507040700 2 169 3.2 4.8 0.00 0.00 0.00 53 1011.5
20260507040155 2 116 3.2 4.8 0.00 0.00 0.00 52 1011.4
20260507035652 2 128 3.2 4.8 0.00 0.00 0.00 52 1011.2
20260507035148 2 149 1.6 4.8 0.00 0.00 0.00 52 1011.3
20260507034645 2 153 1.6 4.8 0.00 0.00 0.00 52 1011.5
20260507034142 2 114 1.6 4.8 0.00 0.00 0.00 52 1011.4
20260507033641 2 164 3.2 4.8 0.00 0.00 0.00 52 1011.3
20260507033137 2 95 1.6 3.2 0.00 0.00 0.00 52 1011.4
20260507032635 2 116 1.6 4.8 0.00 0.00 0.00 52 1011.2
20260507032131 2 69 1.6 4.8 0.00 0.00 0.00 52 1011.2
20260507031628 2 137 1.6 3.2 0.00 0.00 0.00 52 1011.3
20260507031124 2 159 3.2 4.8 0.00 0.00 0.00 52 1011.1
20260507030621 2 144 3.2 4.8 0.00 0.00 0.00 52 1011.0
20260507030119 3 209 0.0 3.2 0.00 0.00 0.00 52 1011.1
20260507025616 3 13 0.0 1.6 0.00 0.00 0.00 52 1011.0
20260507025113 3 130 1.6 4.8 0.00 0.00 0.00 52 1010.9
20260507024611 3 135 3.2 4.8 0.00 0.00 0.00 52 1011.0
20260507024108 3 129 0.0 4.8 0.00 0.00 0.00 52 1010.9
20260507023603 3 147 1.6 4.8 0.00 0.00 0.00 52 1011.0
20260507023101 3 157 1.6 4.8 0.00 0.00 0.00 52 1010.7
20260507022557 3 148 1.6 4.8 0.00 0.00 0.00 52 1010.8
20260507022052 3 109 1.6 4.8 0.00 0.00 0.00 51 1011.0
20260507021548 3 128 1.6 4.8 0.00 0.00 0.00 51 1010.8
20260507021045 3 134 0.0 3.2 0.00 0.00 0.00 51 1010.9
20260507020543 3 140 3.2 3.2 0.00 0.00 0.00 51 1010.7
20260507020034 3 127 3.2 3.2 0.00 0.00 0.00 51 1010.8
20260507015532 3 81 1.6 3.2 0.00 0.00 0.00 51 1010.7
20260507015030 3 149 1.6 4.8 0.00 0.00 0.00 51 1010.6
20260507014526 3 129 1.6 4.8 0.00 0.00 0.00 51 1010.6
20260507014021 3 134 3.2 4.8 0.00 0.00 0.00 51 1010.5
20260507013518 3 112 1.6 3.2 0.00 0.00 0.00 51 1010.8
20260507013016 4 149 4.8 4.8 0.00 0.00 0.00 51 1010.5
20260507012513 4 142 3.2 4.8 0.00 0.00 0.00 50 1010.8
20260507012009 4 347 0.0 3.2 0.00 0.00 0.00 50 1010.5
20260507011507 4 141 3.2 3.2 0.00 0.00 0.00 50 1010.4
20260507011002 4 111 3.2 4.8 0.00 0.00 0.00 50 1010.4
20260507010456 4 137 0.0 3.2 0.00 0.00 0.00 50 1010.3
20260507005953 4 100 1.6 4.8 0.00 0.00 0.00 50 1010.3
20260507005451 5 156 3.2 4.8 0.00 0.00 0.00 50 1010.5
20260507004947 5 171 3.2 4.8 0.00 0.00 0.00 50 1010.5
20260507004444 5 132 1.6 4.8 0.00 0.00 0.00 50 1010.2
20260507003942 5 146 3.2 4.8 0.00 0.00 0.00 50 1010.3
20260507003436 5 44 0.0 3.2 0.00 0.00 0.00 50 1010.4
20260507002931 5 152 1.6 4.8 0.00 0.00 0.00 50 1010.3
20260507002428 5 133 3.2 4.8 0.00 0.00 0.00 50 1010.3
20260507001925 5 141 3.2 4.8 0.00 0.00 0.00 49 1010.3
20260507001422 5 163 0.0 3.2 0.00 0.00 0.00 49 1010.1
20260507000920 5 185 0.0 3.2 0.00 0.00 0.00 49 1010.2
20260507000414 5 137 3.2 4.8 0.00 0.00 0.00 49 1010.1
20260506235910 5 123 1.6 3.2 0.00 0.00 0.00 49 1010.1
20260506235408 5 147 0.0 3.2 0.00 0.00 0.00 49 1010.0
20260506234903 5 146 0.0 3.2 0.00 0.00 0.00 49 1010.0
20260506234402 5 132 1.6 6.4 0.00 0.00 0.00 49 1010.0
20260506233859 6 124 1.6 3.2 0.00 0.00 0.00 49 1009.9